Flag for U.S.A. Weather past 2 weeks in Ann Arbor, Michigan, U.S.A.

Now
47 °F

Fog.


Feels Like: 47 °F
Forecast: 54 / 77 °F
Wind: No wind

Location: Ann Arbor Municipal Airport

Current Time: Jul 25, 2014 at 7:43:11 AM

Latest Report: Jul 25, 2014 at 7:03 AM


Visibility: 0 mi

Pressure: 30.09 "Hg

Humidity: 93%

Dew point: 45 °F

Location of Ann ArborLocation

Historic Weather in Ann Arbor — Graph

°F

Ann Arbor temperature yesterday

Maximum temperature yesterday: 76 °F (at 4:53 PM)
Minimum temperature yesterday: 50 °F (at 11:53 PM)
Average temperature yesterday: 65 °F

Past Weeks' High & Low Weather Summary

 TemperatureHumidityPressure
High85 °F (Jul 22, 12:53 PM)97% (Jul 20, 1:53 AM)30.24 "Hg (Jul 20, 1:53 AM)
Low46 °F (Jul 25, 3:04 AM)36% (Jul 17, 4:53 PM)29.72 "Hg (Jul 15, 2:53 AM)
Average67 °F69%30.03 "Hg
* Reported Jul 10 6:53 AM — Jul 25 6:03 AM, Ann Arbor, Weather by CustomWeather, © 2014

Note: Actual official high and low records may vary slightly from our data, if they occured in-between our weather recording intervals... More about our weather records

Advertising

Ann Arbor weather history for previous 24 hours

 ConditionsComfort  
Time TempWeatherWind HumidityBarometerVisibility
6:03 AM
Jul 25
48 °FFog.No wind93%30.08 "Hg1 mi
5:52 AM48 °FFog.No wind93%30.08 "Hg1 mi
5:02 AM46 °FClear.No wind89%30.08 "Hg9 mi
4:55 AM46 °FFog.3 mph89%30.08 "Hg2 mi
4:01 AM48 °FFog.No wind89%30.06 "Hg1 mi
3:53 AM47 °FFog.No wind90%30.06 "Hg2 mi
3:04 AM46 °FFog.No wind96%30.05 "Hg1 mi
2:53 AM48 °FFog.No wind86%30.05 "Hg1 mi
1:53 AM48 °FClear.No wind89%30.06 "Hg10 mi
12:53 AM50 °FClear.No wind89%30.07 "Hg10 mi
11:53 PM
Jul 24
50 °FClear.3 mph89%30.07 "Hg10 mi
10:53 PM54 °FClear.No wind83%30.06 "Hg10 mi
9:53 PM58 °FSunny.No wind72%30.06 "Hg10 mi
8:53 PM69 °FPartly sunny.8 mph45%30.06 "Hg10 mi
7:53 PM73 °FOvercast.5 mph40%30.04 "Hg10 mi
6:53 PM72 °FSunny.6 mph41%30.04 "Hg10 mi
5:53 PM76 °FPartly sunny.7 mph36%30.04 "Hg10 mi
4:53 PM76 °FScattered clouds.8 mph37%30.06 "Hg10 mi
3:53 PM72 °FScattered clouds.12 mph41%30.08 "Hg10 mi
2:53 PM73 °FPartly sunny.12 mph40%30.09 "Hg10 mi
1:53 PM73 °FScattered clouds.9 mph41%30.10 "Hg10 mi
12:53 PM71 °FPartly sunny.9 mph41%30.11 "Hg10 mi
11:53 AM70 °FPartly sunny.8 mph42%30.12 "Hg10 mi
10:53 AM70 °FPassing clouds.12 mph46%30.12 "Hg10 mi
9:53 AM68 °FSunny.8 mph57%30.12 "Hg10 mi
8:53 AM65 °FSunny.6 mph66%30.12 "Hg10 mi
7:53 AM59 °FSunny.7 mph75%30.11 "Hg10 mi
Weather by CustomWeather, © 2014

See weather overviewHow to use our weather pages